QPF
0.01 0.05 0.04 0.00 0.00 0.00 0.00 0.00 0.00 0.00 0.00 0.00 0.00 0.00 0.00 0.00 0.00 0.00 0.00 0.00 0.00 0.00
0.01 0.02 0.02 0.03 0.04 0.02 0.00 0.00 0.00 0.00 0.00 0.00 0.00 0.00 0.00 0.00 0.00 0.00 0.00 0.00 0.00 0.00
0.00 0.00 0.00 0.01 0.00 0.00 0.00 0.00 0.00 0.00 0.00 0.00 0.00 0.00 0.00 0.00 0.00 0.01 0.01 0.00 0.00 0.00
0.00 0.00 0.00 0.00 0.00 0.00 0.00 0.00 0.00 0.00 0.00 0.00 0.00 0.00 0.01 0.01 0.01 0.02 0.02 0.01 0.00 0.00
0.00 0.00 0.00 0.01 0.01 0.00 0.00 0.00 0.00 0.00 0.00 0.00 0.01 0.01 0.02 0.02 0.02 0.03 0.02 0.01 0.01 0.06
0.00 0.00 0.01 0.00 0.01 0.01 0.01 0.01 0.00 0.00 0.00 0.00 0.00 0.01 0.02 0.02 0.02 0.02 0.02 0.01 0.04 0.10
0.00 0.00 0.00 0.00 0.01 0.01 0.00 0.00 0.00 0.00 0.00 0.01 0.00 0.00 0.01 0.02 0.03 0.01 0.01 0.01 0.04 0.13
0.00 0.00 0.00 0.00 0.00 0.02 0.01 0.01 0.01 0.01 0.01 0.01 0.02 0.01 0.01 0.00 0.00 0.00 0.02 0.03 0.08 0.11
0.00 0.00 0.00 0.00 0.00 0.00 0.00 0.00 0.00 0.00 0.00 0.01 0.01 0.00 0.00 0.00 0.00 0.00 0.01 0.05 0.07 0.08
0.00 0.00 0.00 0.00 0.00 0.00 0.00 0.00 0.00 0.00 0.00 0.00 0.00 0.00 0.00 0.01 0.01 0.00 0.00 0.01 0.03 0.05
0.00 0.00 0.00 0.00 0.00 0.00 0.00 0.00 0.00 0.00 0.00 0.00 0.00 0.00 0.00 0.00 0.01 0.00 0.00 0.00 0.01 0.02
0.00 0.00 0.00 0.00 0.00 0.00 0.00 0.00 0.00 0.00 0.00 0.00 0.00 0.00 0.00 0.00 0.00 0.00 0.00 0.00 0.01 0.03
0.00 0.00 0.00 0.00 0.00 0.00 0.00 0.00 0.00 0.00 0.00 0.00 0.00 0.00 0.00 0.00 0.00 0.01 0.01 0.01 0.02 0.03
0.00 0.00 0.00 0.00 0.00 0.00 0.00 0.00 0.00 0.00 0.00 0.00 0.00 0.00 0.00 0.00 0.01 0.02 0.03 0.03 0.04 0.04
MSLP
1004.23 1004.63 1004.34 1004.33 1005.20 1005.82 1006.05 1006.25 1006.70 1007.13 1007.63 1008.19 1008.66 1009.24 1009.73 1010.04 1010.45 1010.81 1011.16 1011.49 1011.91 1012.35
1004.36 1003.50 1003.79 1004.15 1004.71 1005.08 1005.34 1005.62 1005.86 1006.35 1006.81 1007.28 1007.82 1008.23 1008.75 1009.30 1009.58 1010.01 1010.22 1010.53 1011.21 1011.46
1003.34 1003.62 1003.70 1003.42 1003.96 1004.10 1004.36 1004.90 1005.23 1005.47 1005.92 1006.42 1006.89 1007.40 1007.84 1008.29 1008.79 1009.20 1009.41 1009.74 1010.31 1010.93
1004.25 1003.82 1003.80 1003.91 1003.62 1003.78 1004.00 1004.27 1004.54 1004.88 1005.28 1005.61 1005.99 1006.42 1006.95 1007.39 1007.83 1008.33 1008.60 1008.98 1009.45 1010.08
1005.19 1004.83 1004.54 1004.24 1004.06 1003.96 1003.73 1003.74 1003.99 1004.32 1004.67 1004.96 1005.32 1005.65 1006.09 1006.55 1006.95 1007.46 1007.84 1008.29 1008.97 1009.73
1005.48 1005.54 1005.31 1005.20 1005.21 1004.73 1004.16 1003.76 1003.51 1003.76 1004.14 1004.52 1004.57 1004.95 1005.31 1005.58 1006.18 1006.55 1006.99 1007.41 1007.98 1008.96
1005.87 1005.80 1005.69 1005.69 1005.59 1005.27 1004.79 1004.13 1003.61 1003.36 1003.61 1003.93 1004.10 1004.51 1004.87 1005.26 1005.81 1006.33 1006.73 1007.08 1007.46 1008.23
1006.04 1005.94 1005.98 1006.07 1005.87 1005.58 1005.27 1004.82 1004.19 1003.90 1003.45 1003.50 1003.68 1003.98 1004.45 1005.16 1005.88 1006.44 1007.13 1007.13 1007.57 1008.22
1006.08 1006.17 1006.25 1006.27 1006.15 1006.01 1005.61 1005.15 1004.86 1004.38 1004.09 1003.83 1003.84 1003.98 1004.18 1004.75 1005.57 1006.13 1006.84 1007.48 1007.81 1008.33
1005.98 1005.98 1005.95 1006.11 1006.19 1006.27 1006.20 1005.86 1005.48 1005.15 1004.80 1004.55 1004.17 1004.10 1004.31 1004.42 1004.96 1005.66 1006.27 1006.98 1007.99 1008.48
1005.86 1005.87 1005.86 1006.00 1006.09 1006.19 1006.31 1006.17 1005.92 1005.65 1005.35 1005.12 1004.86 1004.77 1004.41 1004.33 1004.71 1005.26 1005.80 1006.63 1006.89 1007.94
1005.85 1005.72 1005.83 1005.89 1005.82 1006.06 1006.19 1006.19 1006.09 1005.89 1005.55 1005.32 1005.08 1004.93 1004.96 1005.26 1005.13 1005.48 1006.02 1006.29 1007.03 1007.67
1005.42 1005.38 1005.45 1005.55 1005.72 1005.82 1005.94 1006.08 1006.10 1005.97 1005.69 1005.47 1005.28 1005.17 1005.12 1005.26 1005.69 1006.30 1006.71 1006.91 1007.59 1007.90
1004.72 1004.81 1004.81 1005.06 1005.39 1005.57 1005.73 1005.94 1006.11 1006.07 1005.87 1005.62 1005.46 1005.32 1005.40 1005.36 1005.54 1005.98 1006.73 1007.44 1008.06 1008.50
Thickness
5735 5737 5742 5744 5743 5741 5743 5746 5747 5744 5742 5738 5735 5730 5724 5720 5717 5715 5711 5707 5705 5701
5725 5738 5736 5738 5735 5733 5736 5739 5741 5740 5737 5736 5732 5728 5723 5715 5713 5710 5710 5707 5702 5699
5717 5719 5724 5731 5730 5731 5732 5731 5729 5731 5730 5729 5728 5725 5719 5713 5709 5706 5706 5703 5699 5694
5697 5706 5708 5711 5718 5721 5723 5724 5724 5721 5719 5720 5722 5720 5714 5710 5707 5703 5701 5699 5696 5689
5673 5682 5689 5696 5701 5706 5712 5714 5715 5714 5713 5712 5712 5712 5709 5704 5702 5698 5695 5693 5688 5681
5654 5658 5665 5672 5676 5683 5692 5700 5704 5705 5704 5703 5706 5704 5703 5701 5697 5694 5691 5689 5685 5676
5636 5641 5646 5649 5654 5662 5671 5681 5688 5693 5695 5694 5695 5694 5694 5692 5687 5685 5682 5680 5677 5670
5621 5625 5628 5630 5635 5643 5650 5658 5667 5673 5680 5683 5684 5684 5682 5679 5674 5669 5664 5666 5662 5656
5606 5609 5613 5616 5619 5622 5628 5637 5644 5652 5659 5666 5668 5667 5667 5667 5663 5658 5654 5649 5646 5641
5589 5593 5598 5603 5605 5607 5610 5615 5621 5628 5635 5642 5648 5647 5649 5651 5652 5648 5644 5640 5630 5625
5571 5576 5571 5582 5586 5585 5592 5597 5603 5608 5615 5621 5626 5627 5633 5636 5638 5635 5633 5627 5626 5618
5551 5557 5559 5557 5562 5565 5569 5573 5579 5589 5596 5601 5607 5609 5612 5614 5619 5615 5615 5616 5611 5606
5538 5543 5548 5549 5547 5551 5557 5556 5562 5566 5574 5580 5586 5589 5594 5598 5597 5593 5593 5595 5592 5590
5526 5528 5533 5535 5537 5538 5539 5539 5543 5547 5553 5560 5566 5571 5574 5580 5582 5581 5578 5576 5573 5572